Вернуться в каталог

STARLINK-37577

АктивенСвязьVLEO
NORAD 69452·PAYLOAD·🇺🇸 United States

Запущен Jun 8, 2026 с Cape Canaveral Space Force Station

Loading…

Ближайшие Пролёты (ближайшие 24 часа)

TLE

СвежийSource: CelesTrak SupGP

Эпоха: Sep 15, 2026, 02:51 UTC

1 69452C 26127K   26258.11923611 -.00058012  00000+0 -17139-2 0  2589
2 69452  53.1581 191.1828 0001349  90.5182 201.3263 15.34420708    15

Отслеживайте STARLINK-37577 в реальном времени с AllMySat

Download on the App Store